Regional Weather Roundup
Issued by NWS

Home | Current Version | Previous Version | Text Only | Print | Product List | Glossary On
Versions: 1 2 3 4 5 6 7 8 9 10 11 12 13 14 15 16 17 18 19 20 21 22 23 24 25 26 27 28 29 30 31 32 33 34 35 36 37 38 39 40 41 42 43 44 45 46 47 48 49 50
000
ASUS43 KOAX 270902
RWRNE

WEATHER ROUNDUP FOR NEBRASKA
NATIONAL WEATHER SERVICE OMAHA NE
400 AM CDT WED MAY 27 2015

NOTES: SATELLITE DATA IS BEING USED TO AUGMENT CLOUD COVER ABOVE
       12000 FEET.
       "FAIR" INDICATES FEW OR NO CLOUDS BELOW 12,000 FEET WITH NO
       SIGNIFICANT WEATHER AND/OR OBSTRUCTIONS TO VISIBILITY.

  * THESE STATIONS DO NOT REPORT WEATHER SUCH AS RAIN...SNOW OR FOG.

NEZ001>004-019>022-054>056-271000-
NEBRASKA PANHANDLE

CITY           SKY/WX    TMP DP  RH WIND       PRES   REMARKS
SCOTTSBLUFF    CLOUDY    53  51  93 SE7       30.03S
ALLIANCE       CLOUDY    54  50  86 W5        30.04S
CHADRON        CLOUDY    56  52  86 S7        30.00R
SIDNEY         MOCLDY    52  49  89 SE8       30.06S
$$

NEZ057>060-069>072-079>082-271000-
SOUTHWEST NEBRASKA

CITY           SKY/WX    TMP DP  RH WIND       PRES   REMARKS
NORTH PLATTE   PTCLDY    51  47  86 CALM      30.05F
IMPERIAL       MOCLDY    53  49  86 S5        30.06S
LEXINGTON      CLEAR     49  48  94 W3        30.05S
MCCOOK         CLEAR     53  47  79 CALM      30.05S
$$

NEZ005>010-023>029-035>040-094-271000-
NORTH CENTRAL NEBRASKA

CITY           SKY/WX    TMP DP  RH WIND       PRES   REMARKS
VALENTINE      CLEAR     48  46  93 CALM      30.02S
AINSWORTH      CLEAR     52  47  84 SW7       30.03R
BROKEN BOW     PTCLDY    51  47  86 CALM      30.04R
ORD            CLEAR     51  47  86 CALM      30.01S
$$

NEZ041-046>049-061>064-073>077-083>087-271000-
SOUTH CENTRAL NEBRASKA

CITY           SKY/WX    TMP DP  RH WIND       PRES   REMARKS
GRAND ISLAND   CLEAR     52  47  83 W7        30.02S
HASTINGS       PTCLDY    54  47  77 SW3       30.03R
KEARNEY *      MOCLDY    52  46  82 W3        30.04R
$$

NEZ011>018-030>034-042>045-271000-
NORTHEAST NEBRASKA

CITY           SKY/WX    TMP DP  RH WIND       PRES   REMARKS
NORFOLK        CLEAR     56  50  80 W8        29.98R
BLAIR          CLEAR     56  51  83 W8        29.97R
COLUMBUS *       N/A    N/A N/A N/A MISG        N/A
FREMONT        CLEAR     55  52  90 W5        29.99R
TEKAMAH        CLEAR     56  52  86 W6        29.95R
$$

NEZ050>053-065>068-078-088>093-271000-
SOUTHEAST NEBRASKA

CITY           SKY/WX    TMP DP  RH WIND       PRES   REMARKS
LINCOLN        CLEAR     58  50  75 W3        30.00R
OMAHA EPPLEY   CLEAR     54  53  97 SE5       29.97R
FALLS CITY     CLEAR     56  53  90 NW7       29.98R
NEBRASKA CITY  CLEAR     56  51  81 W9        29.99R
PLATTSMOUTH    CLEAR     57  51  79 W6        29.98R
$$

NEZ044-045-051>053-067-271000-
OMAHA AREA

CITY           SKY/WX    TMP DP  RH WIND       PRES   REMARKS
OMAHA EPPLEY   CLEAR     54  53  97 SE5       29.97R
BLAIR          CLEAR     56  51  83 W8        29.97R
FREMONT        CLEAR     55  52  90 W5        29.99R
OFFUTT AFB     CLEAR     52  50  93 W3        29.97R
PLATTSMOUTH    CLEAR     57  51  79 W6        29.98R
$$


USA.gov is the U.S. government's official web portal to all federal, state and local government web resources and services.